sat.trackr.live / text

‹ back to catalog

O3B MPOWER F3

NORAD 56368 · 2023-059B

PAYLOAD ACTIVE UNKNOWN

§ Identity

Operator
Country
O3B
Launch date
2023-04-28
Launch site
AFETR
Launch vehicle
Mass (kg)
RCS (m²)

Purposes: comms

External: N2YO · Heavens-Above · Gunter

§ Orbital elements

Epoch: 2026-05-24T19:41:26.126592Z

Period
287.93 min
Inclination
0.0653°
Eccentricity
0.0006713
Mean motion
5.00116536 rev/d
Perigee alt
8,056.2 km
Apogee alt
8,075.6 km
Semi-major
14,444.0 km
B*
0.0000e+0
RAAN
358.2204°
Arg perigee
65.4198°
Mean anomaly
296.4280°
Rev number
5,356

§ Raw data

O3B MPOWER F31 56368U 23059B   26144.82044128 -.00000024  00000+0  00000+0 0  99982 56368   0.0653 358.2204 0006713  65.4198 296.4280  5.00116536 53565

JSON: /api/v1/satellites/56368 · /tle

For live sub-satellite position, see the globe view (requires WebGL).

§ Visibility from observer

Set your observer location to see the next 7 days of passes ≥ 10°. The values pass through the URL so the page stays shareable.

No JS? Fill the form by hand. The geolocation button needs JavaScript.